Date String (YYYY-MM-DD hh:mm:ss) UTC,Instrument flags,absolute air pressure of the measurement (hPa),sample flow rate (lpm),inlet stack bypass flow (lpm),air temperature of the measurement (°C),ambient temperature measured by the external sensor (°C),aerosol sample conditioner tube jacket temperature (°C),OPC LED temperature (°C),internal box temperature (°C),relative humidity of the measurement (%),span deviation,mass concentration of particles derived from Lorenz-Mie calculation of OPC scattering (μg/m³),mass concentration of particles derived from Lorenz-Mie calculation of OPC scattering (μg/m³),mass concentration of particles derived from Lorenz-Mie calculation of OPC scattering (μg/m³)
DateTimeUTC,F1_M11,P_M11,Q1_M11,Q2_M11,T1_M11,T2_M11,T3_M11,T4_M11,T5_M11,U1_M11,ZSPAN_M11,X0_M11,X2_M11,X1_M11
2023-06-02 08:00:00,SystemResetWarning,0827.4,4.99,000.00,029.8,028.3,000.0,038.2,031.4,25.1,0000.0,0004.03,0002.03,0001.27
2023-06-02 08:01:00,SystemResetWarning,0827.7,4.99,000.00,029.8,028.3,000.0,038.2,031.5,25.2,0000.0,0004.10,0002.06,0001.28
2023-06-02 08:02:00,SystemResetWarning,0827.5,5.00,000.00,029.8,028.3,000.0,038.2,031.5,25.0,0000.0,0004.03,0002.05,0001.28
2023-06-02 08:03:00,SystemResetWarning,0827.8,5.01,000.00,029.8,028.3,000.0,038.2,031.5,24.8,0000.0,0004.02,0002.04,0001.27
2023-06-02 08:04:00,SystemResetWarning,0827.4,5.01,000.00,029.8,028.3,000.0,038.2,031.5,24.7,0000.0,0003.79,0001.99,0001.25
2023-06-02 08:05:00,SystemResetWarning,0827.5,5.01,000.00,029.8,028.3,000.0,038.2,031.5,24.7,0000.0,0003.54,0001.93,0001.24
2023-06-02 08:06:00,SystemResetWarning,0827.6,4.99,000.00,029.8,028.3,000.0,038.2,031.5,24.6,0000.0,0003.26,0001.85,0001.22
2023-06-02 08:07:00,SystemResetWarning,0827.7,4.99,000.00,029.8,028.3,000.0,038.2,031.4,25.2,0000.0,0003.18,0001.84,0001.22
2023-06-02 08:08:00,SystemResetWarning,0827.7,5.00,000.00,029.8,028.3,000.0,038.2,031.4,25.8,0000.0,0003.27,0001.87,0001.23
2023-06-02 08:09:00,SystemResetWarning,0827.8,5.00,000.00,029.8,028.2,000.0,038.2,031.4,25.7,0000.0,0003.23,0001.86,0001.23
2023-06-02 08:10:00,SystemResetWarning,0827.9,5.01,000.00,029.8,028.1,000.0,038.2,031.3,25.7,0000.0,0003.13,0001.84,0001.25
2023-06-02 08:11:00,SystemResetWarning,0827.8,5.01,000.00,029.7,028.0,000.0,038.2,031.3,26.0,0000.0,0003.17,0001.89,0001.27
2023-06-02 08:12:00,SystemResetWarning,0827.9,4.99,000.00,029.7,028.0,000.0,038.2,031.2,26.0,0000.0,0003.14,0001.90,0001.29
2023-06-02 08:13:00,SystemResetWarning,0827.9,4.99,000.00,029.7,027.9,000.0,038.2,031.2,26.2,0000.0,0003.17,0001.94,0001.31
2023-06-02 08:14:00,SystemResetWarning,0827.9,5.00,000.00,029.6,027.8,000.0,038.2,031.1,25.9,0000.0,0003.18,0001.96,0001.33
2023-06-02 08:15:00,SystemResetWarning,0828.0,5.01,000.00,029.6,027.8,000.0,038.2,031.1,26.2,0000.0,0003.36,0002.06,0001.36
2023-06-02 08:16:00,SystemResetWarning,0828.1,5.00,000.00,029.6,027.8,000.0,038.2,031.1,26.6,0000.0,0003.61,0002.16,0001.38
2023-06-02 08:17:00,SystemResetWarning,0828.1,5.00,000.00,029.6,027.8,000.0,038.1,031.1,27.1,0000.0,0003.61,0002.20,0001.43
2023-06-02 08:18:00,SystemResetWarning,0828.1,5.00,000.00,029.6,027.8,000.0,038.1,031.1,27.4,0000.0,0003.60,0002.21,0001.46
2023-06-02 08:19:00,SystemResetWarning,0828.1,5.00,000.00,029.6,027.8,000.0,038.1,031.1,27.6,0000.0,0003.67,0002.26,0001.49
2023-06-02 08:20:00,SystemResetWarning,0828.1,4.99,000.00,029.6,027.8,000.0,038.1,031.1,27.6,0000.0,0003.78,0002.31,0001.52
2023-06-02 08:21:00,SystemResetWarning,0828.1,5.00,000.00,029.6,027.8,000.0,038.1,031.1,27.3,0000.0,0004.35,0002.33,0001.53
2023-06-02 08:22:00,SystemResetWarning,0828.1,5.01,000.00,029.5,027.8,000.0,038.1,031.1,27.2,0000.0,0004.75,0002.31,0001.53
2023-06-02 08:23:00,SystemResetWarning,0828.1,5.01,000.00,029.5,027.8,000.0,038.1,031.1,27.1,0000.0,0004.87,0002.36,0001.54
2023-06-02 08:24:00,SystemResetWarning,0828.1,5.00,000.00,029.5,027.7,000.0,038.0,031.0,27.0,0000.0,0005.06,0002.37,0001.54
2023-06-02 08:25:00,SystemResetWarning,0828.2,5.00,000.00,029.5,027.7,000.0,038.0,031.0,27.1,0000.0,0005.10,0002.36,0001.55
2023-06-02 08:26:00,SystemResetWarning,0828.2,5.00,000.00,029.5,027.6,000.0,038.0,031.0,27.2,0000.0,0005.31,0002.39,0001.56
2023-06-02 08:27:00,SystemResetWarning,0828.1,5.00,000.00,029.4,027.6,000.0,038.0,031.0,27.3,0000.0,0005.34,0002.35,0001.56
2023-06-02 08:28:00,SystemResetWarning,0828.2,5.00,000.00,029.4,027.6,000.0,038.0,030.9,27.2,0000.0,0005.49,0002.37,0001.54
2023-06-02 08:29:00,SystemResetWarning,0828.2,4.99,000.00,029.4,027.5,000.0,038.0,030.9,27.3,0000.0,0006.02,0002.39,0001.53
2023-06-02 08:30:00,SystemResetWarning,0828.1,4.99,000.00,029.4,027.5,000.0,038.0,030.9,27.4,0000.0,0006.87,0002.35,0001.51
2023-06-02 08:31:00,SystemResetWarning,0828.1,5.00,000.00,029.3,027.5,000.0,037.9,030.9,27.5,0000.0,0006.90,0002.33,0001.51
2023-06-02 08:32:00,SystemResetWarning,0828.1,5.00,000.00,029.3,027.5,000.0,037.9,030.9,27.5,0000.0,0006.76,0002.35,0001.52
2023-06-02 08:33:00,SystemResetWarning,0828.1,5.00,000.00,029.3,027.5,000.0,037.9,030.9,27.6,0000.0,0006.06,0002.36,0001.53
2023-06-02 08:34:00,SystemResetWarning,0828.1,5.01,000.00,029.3,027.5,000.0,037.9,030.8,27.7,0000.0,0006.14,0002.39,0001.54
2023-06-02 08:35:00,SystemResetWarning,0828.1,5.00,000.00,029.3,027.4,000.0,037.9,030.8,27.7,0000.0,0006.44,0002.48,0001.57
2023-06-02 08:36:00,SystemResetWarning,0828.1,5.01,000.00,029.3,027.4,000.0,037.9,030.8,27.5,0000.0,0006.43,0002.51,0001.55
2023-06-02 08:37:00,SystemResetWarning,0828.1,5.00,000.00,029.3,027.4,000.0,037.8,030.8,27.5,0000.0,0006.45,0002.51,0001.54
2023-06-02 08:38:00,SystemResetWarning,0828.1,5.00,000.00,029.2,027.4,000.0,037.8,030.8,27.6,0000.0,0007.35,0002.50,0001.52
2023-06-02 08:39:00,SystemResetWarning,0828.1,4.99,000.00,029.2,027.4,000.0,037.8,030.8,27.6,0000.0,0007.45,0002.51,0001.53
2023-06-02 08:40:00,SystemResetWarning,0828.1,5.00,000.00,029.2,027.4,000.0,037.8,030.7,27.4,0000.0,0007.17,0002.55,0001.51
2023-06-02 08:41:00,SystemResetWarning,0828.0,4.99,000.00,029.2,027.4,000.0,037.8,030.7,27.4,0000.0,0006.43,0002.57,0001.52
2023-06-02 08:42:00,SystemResetWarning,0828.0,5.00,000.00,029.2,027.4,000.0,037.8,030.7,27.3,0000.0,0006.38,0002.59,0001.52
2023-06-02 08:43:00,SystemResetWarning,0828.0,4.99,000.00,029.2,027.4,000.0,037.7,030.7,27.1,0000.0,0006.36,0002.59,0001.51
2023-06-02 08:44:00,SystemResetWarning,0828.1,5.01,000.00,029.2,027.4,000.0,037.7,030.7,26.8,0000.0,0006.42,0002.61,0001.48
2023-06-02 08:45:00,SystemResetWarning,0828.1,5.00,000.00,029.2,027.4,000.0,037.7,030.7,26.8,0000.0,0006.33,0002.57,0001.46
2023-06-02 08:46:00,SystemResetWarning,0828.1,5.01,000.00,029.1,027.4,000.0,037.7,030.7,26.8,0000.0,0005.94,0002.47,0001.44
2023-06-02 08:47:00,SystemResetWarning,0828.1,5.00,000.00,029.1,027.4,000.0,037.7,030.7,26.6,0000.0,0006.08,0002.45,0001.43
2023-06-02 08:48:00,SystemResetWarning,0828.1,5.00,000.00,029.1,027.4,000.0,037.7,030.7,26.6,0000.0,0006.34,0002.39,0001.43
2023-06-02 08:49:00,SystemResetWarning,0828.1,5.00,000.00,029.1,027.4,000.0,037.7,030.7,26.7,0000.0,0005.23,0002.40,0001.44
2023-06-02 08:50:00,SystemResetWarning,0828.1,5.00,000.00,029.1,027.5,000.0,037.7,030.7,26.9,0000.0,0005.12,0002.36,0001.44
2023-06-02 08:51:00,SystemResetWarning,0828.0,4.99,000.00,029.1,027.5,000.0,037.6,030.7,27.0,0000.0,0005.45,0002.33,0001.44
2023-06-02 08:52:00,SystemResetWarning,0828.0,5.00,000.00,029.1,027.5,000.0,037.6,030.7,27.0,0000.0,0005.60,0002.30,0001.42
2023-06-02 08:53:00,SystemResetWarning,0827.9,5.01,000.00,029.1,027.6,000.0,037.6,030.8,26.8,0000.0,0005.59,0002.26,0001.39
2023-06-02 08:54:00,SystemResetWarning,0827.8,5.00,000.00,029.1,027.6,000.0,037.6,030.8,26.6,0000.0,0005.72,0002.21,0001.38
2023-06-02 08:55:00,SystemResetWarning,0827.8,5.00,000.00,029.2,027.6,000.0,037.6,030.8,26.5,0000.0,0005.63,0002.17,0001.38
2023-06-02 08:56:00,SystemResetWarning,0827.9,4.99,000.00,029.2,027.6,000.0,037.6,030.8,26.7,0000.0,0005.66,0002.18,0001.39
2023-06-02 08:57:00,SystemResetWarning,0827.8,5.00,000.00,029.2,027.6,000.0,037.6,030.8,26.8,0000.0,0005.80,0002.19,0001.38
2023-06-02 08:58:00,SystemResetWarning,0827.8,5.00,000.00,029.2,027.6,000.0,037.6,030.8,26.9,0000.0,0005.93,0002.21,0001.39
2023-06-02 08:59:00,SystemResetWarning,0827.8,5.00,000.00,029.2,027.6,000.0,037.6,030.8,27.2,0000.0,0005.36,0002.25,0001.41
